| time (UTC) | temp F | wind direction | speed MPH | gust MPH | rain 1hr in | rain 24hr in | rain mn in | humidity % | barometer mb |
| 20260831122017 | 76 | 240 | 7.0 | 13.0 | 0.00 | 0.01 | 0.01 | 61 | 1017.8 |
| 20260831121017 | 76 | 261 | 7.0 | 16.0 | 0.00 | 0.01 | 0.01 | 60 | 1017.8 |
| 20260831120015 | 76 | 240 | 8.0 | 16.0 | 0.00 | 0.01 | 0.01 | 59 | 1017.9 |
| 20260831115018 | 76 | 229 | 6.0 | 16.0 | 0.00 | 0.01 | 0.01 | 59 | 1018.0 |
| 20260831114016 | 76 | 253 | 7.0 | 15.0 | 0.00 | 0.01 | 0.01 | 60 | 1018.0 |
| 20260831113017 | 76 | 236 | 6.0 | 13.0 | 0.00 | 0.01 | 0.01 | 59 | 1017.9 |
| 20260831112016 | 78 | 261 | 7.0 | 16.0 | 0.00 | 0.01 | 0.01 | 60 | 1017.9 |
| 20260831111016 | 77 | 258 | 8.0 | 13.0 | 0.00 | 0.01 | 0.01 | 60 | 1018.0 |
| 20260831110038 | 75 | 241 | 5.0 | 13.0 | 0.00 | 0.01 | 0.01 | 63 | 1018.0 |
| 20260831105015 | 76 | 265 | 5.0 | 11.0 | 0.00 | 0.01 | 0.01 | 61 | 1018.0 |
| 20260831104016 | 76 | 259 | 5.0 | 13.0 | 0.00 | 0.01 | 0.01 | 62 | 1018.1 |
| 20260831103038 | 75 | 250 | 5.0 | 13.0 | 0.00 | 0.01 | 0.01 | 62 | 1018.1 |
| 20260831102015 | 74 | 221 | 8.0 | 16.0 | 0.00 | 0.01 | 0.01 | 64 | 1018.2 |
| 20260831101038 | 73 | 245 | 5.0 | 11.0 | 0.00 | 0.01 | 0.01 | 65 | 1018.3 |
| 20260831100016 | 73 | 230 | 6.0 | 13.0 | 0.00 | 0.01 | 0.01 | 65 | 1018.4 |
| 20260831095016 | 73 | 272 | 5.0 | 12.0 | 0.00 | 0.01 | 0.01 | 65 | 1018.5 |
| 20260831094015 | 73 | 258 | 7.0 | 12.0 | 0.00 | 0.01 | 0.01 | 65 | 1018.5 |
| 20260831093017 | 73 | 261 | 6.0 | 12.0 | 0.00 | 0.01 | 0.01 | 64 | 1018.5 |
| 20260831092017 | 75 | 273 | 7.0 | 12.0 | 0.00 | 0.01 | 0.01 | 63 | 1018.6 |
| 20260831091015 | 74 | 238 | 7.0 | 16.0 | 0.00 | 0.01 | 0.01 | 64 | 1018.5 |
| 20260831090036 | 74 | 258 | 7.0 | 14.0 | 0.00 | 0.01 | 0.01 | 64 | 1018.4 |
| 20260831085016 | 72 | 281 | 7.0 | 13.0 | 0.00 | 0.01 | 0.01 | 66 | 1018.5 |
| 20260831084018 | 73 | 276 | 9.0 | 18.0 | 0.00 | 0.01 | 0.01 | 65 | 1018.4 |
| 20260831083015 | 73 | 257 | 8.0 | 15.0 | 0.00 | 0.01 | 0.01 | 66 | 1018.4 |
| 20260831082019 | 73 | 256 | 5.0 | 10.0 | 0.00 | 0.01 | 0.01 | 67 | 1018.3 |
| 20260831081016 | 72 | 240 | 5.0 | 12.0 | 0.00 | 0.01 | 0.01 | 68 | 1018.3 |
| 20260831080019 | 71 | 237 | 6.0 | 13.0 | 0.00 | 0.01 | 0.01 | 71 | 1018.2 |
| 20260831075017 | 70 | 259 | 7.0 | 15.0 | 0.00 | 0.01 | 0.01 | 72 | 1018.1 |
| 20260831074019 | 69 | 247 | 6.0 | 11.0 | 0.00 | 0.01 | 0.01 | 72 | 1017.9 |
| 20260831073019 | 69 | 239 | 7.0 | 15.0 | 0.00 | 0.01 | 0.01 | 73 | 1017.9 |
| 20260831072017 | 69 | 254 | 7.0 | 17.0 | 0.00 | 0.01 | 0.01 | 74 | 1017.8 |
| 20260831071017 | 68 | 236 | 8.0 | 18.0 | 0.00 | 0.01 | 0.01 | 74 | 1017.7 |
| 20260831070016 | 67 | 238 | 4.0 | 12.0 | 0.00 | 0.01 | 0.01 | 76 | 1017.7 |
| 20260831065018 | 66 | 231 | 5.0 | 11.0 | 0.00 | 0.01 | 0.01 | 77 | 1017.6 |
| 20260831064017 | 66 | 240 | 5.0 | 14.0 | 0.00 | 0.01 | 0.01 | 76 | 1017.5 |
| 20260831063018 | 67 | 231 | 7.0 | 14.0 | 0.00 | 0.01 | 0.01 | 76 | 1017.5 |
| 20260831062037 | 67 | 240 | 8.0 | 19.0 | 0.00 | 0.01 | 0.01 | 76 | 1017.4 |
| 20260831061015 | 67 | 236 | 6.0 | 13.0 | 0.00 | 0.01 | 0.01 | 76 | 1017.4 |
| 20260831060017 | 66 | 235 | 9.0 | 15.0 | 0.00 | 0.01 | 0.01 | 77 | 1017.1 |
| 20260831055016 | 65 | 226 | 8.0 | 16.0 | 0.00 | 0.01 | 0.01 | 79 | 1017.1 |
| 20260831054016 | 64 | 220 | 6.0 | 12.0 | 0.00 | 0.01 | 0.01 | 80 | 1017.0 |
| 20260831053016 | 64 | 210 | 5.0 | 8.0 | 0.00 | 0.01 | 0.01 | 81 | 1017.0 |
| 20260831052016 | 63 | 196 | 3.0 | 7.0 | 0.00 | 0.01 | 0.01 | 81 | 1017.0 |
| 20260831051038 | 63 | 179 | 4.0 | 7.0 | 0.00 | 0.01 | 0.01 | 81 | 1017.0 |
| 20260831050019 | 63 | 187 | 3.0 | 7.0 | 0.00 | 0.01 | 0.01 | 81 | 1016.9 |
| 20260831045017 | 63 | 190 | 3.0 | 7.0 | 0.00 | 0.01 | 0.01 | 82 | 1016.9 |
| 20260831044016 | 63 | 200 | 3.0 | 6.0 | 0.00 | 0.01 | 0.01 | 82 | 1017.0 |
| 20260831043016 | 63 | 203 | 3.0 | 6.0 | 0.00 | 0.01 | 0.01 | 82 | 1017.0 |
| 20260831042016 | 63 | 212 | 4.0 | 9.0 | 0.01 | 0.01 | 0.01 | 82 | 1017.1 |
| 20260831040017 | 63 | 214 | 4.0 | 8.0 | 0.01 | 0.01 | 0.01 | 85 | 1016.8 |
| 20260831035019 | 64 | 236 | 3.0 | 7.0 | 0.01 | 0.01 | 0.01 | 84 | 1016.7 |
| 20260831034016 | 64 | 238 | 5.0 | 10.0 | 0.01 | 0.01 | 0.01 | 83 | 1017.0 |
| 20260831033015 | 65 | 244 | 9.0 | 17.0 | 0.01 | 0.01 | 0.01 | 82 | 1017.4 |
| 20260831032017 | 65 | 256 | 11.0 | 22.0 | 0.00 | 0.00 | 0.00 | 82 | 1017.5 |
| 20260831031017 | 64 | 239 | 10.0 | 20.0 | 0.00 | 0.00 | 0.00 | 84 | 1017.4 |
| 20260831030017 | 64 | 148 | 2.0 | 3.0 | 0.00 | 0.00 | 0.00 | 84 | 1015.0 |
| 20260831025038 | 64 | 140 | 2.0 | 4.0 | 0.00 | 0.00 | 0.00 | 84 | 1014.8 |
| 20260831024018 | 64 | 137 | 1.0 | 3.0 | 0.00 | 0.00 | 0.00 | 84 | 1015.1 |
| 20260831023019 | 65 | 128 | 1.0 | 3.0 | 0.00 | 0.00 | 0.00 | 83 | 1014.9 |
| 20260831022015 | 65 | 118 | 3.0 | 7.0 | 0.00 | 0.00 | 0.00 | 83 | 1014.8 |
| 20260831021017 | 65 | 119 | 3.0 | 7.0 | 0.00 | 0.00 | 0.00 | 83 | 1014.7 |
| 20260831020058 | 65 | 107 | 5.0 | 9.0 | 0.00 | 0.00 | 0.00 | 83 | 1014.8 |
| 20260831015017 | 65 | 114 | 4.0 | 8.0 | 0.00 | 0.00 | 0.00 | 83 | 1014.8 |
| 20260831014018 | 65 | 113 | 5.0 | 9.0 | 0.00 | 0.00 | 0.00 | 82 | 1014.9 |
| 20260831013018 | 65 | 114 | 4.0 | 7.0 | 0.00 | 0.00 | 0.00 | 83 | 1015.1 |
| 20260831012037 | 66 | 106 | 3.0 | 6.0 | 0.00 | 0.00 | 0.00 | 82 | 1015.1 |
| 20260831011018 | 66 | 115 | 3.0 | 8.0 | 0.00 | 0.00 | 0.00 | 82 | 1015.2 |
| 20260831010016 | 66 | 108 | 4.0 | 8.0 | 0.00 | 0.00 | 0.00 | 82 | 1015.2 |
| 20260831005036 | 66 | 109 | 3.0 | 7.0 | 0.00 | 0.00 | 0.00 | 81 | 1015.2 |
| 20260831004017 | 66 | 107 | 2.0 | 7.0 | 0.00 | 0.00 | 0.00 | 81 | 1015.3 |
| 20260831003020 | 67 | 107 | 2.0 | 7.0 | 0.00 | 0.00 | 0.00 | 80 | 1015.4 |
| 20260831002018 | 67 | 112 | 2.0 | 7.0 | 0.00 | 0.00 | 0.00 | 79 | 1015.5 |
| 20260831001017 | 67 | 109 | 2.0 | 6.0 | 0.00 | 0.00 | 0.00 | 78 | 1015.6 |
| 20260831000015 | 67 | 100 | 3.0 | 8.0 | 0.00 | 0.00 | 0.00 | 78 | 1015.7 |
| 20260830235037 | 67 | 105 | 3.0 | 7.0 | 0.00 | 0.00 | 0.00 | 78 | 1015.8 |
| 20260830234017 | 67 | 115 | 2.0 | 5.0 | 0.00 | 0.00 | 0.00 | 78 | 1015.9 |
| 20260830233018 | 66 | 114 | 2.0 | 4.0 | 0.00 | 0.00 | 0.00 | 80 | 1016.0 |
| 20260830232017 | 66 | 147 | 1.0 | 2.0 | 0.00 | 0.00 | 0.00 | 80 | 1016.0 |
| 20260830231018 | 66 | 147 | 0.0 | 2.0 | 0.00 | 0.00 | 0.00 | 79 | 1016.0 |
| 20260830230017 | 67 | 147 | 1.0 | 2.0 | 0.00 | 0.00 | 0.00 | 79 | 1016.0 |
| 20260830225018 | 66 | 160 | 1.0 | 4.0 | 0.00 | 0.00 | 0.00 | 80 | 1016.1 |
| 20260830224020 | 65 | 186 | 2.0 | 6.0 | 0.00 | 0.00 | 0.00 | 81 | 1016.3 |
| 20260830223037 | 66 | 160 | 1.0 | 2.0 | 0.00 | 0.00 | 0.00 | 81 | 1016.4 |
| 20260830222038 | 66 | 160 | 1.0 | 2.0 | 0.00 | 0.00 | 0.00 | 81 | 1016.5 |
| 20260830221016 | 67 | 160 | 0.0 | 1.0 | 0.00 | 0.00 | 0.00 | 81 | 1016.5 |
| 20260830220038 | 67 | 0.0 | 0.0 | 0.00 | 0.00 | 0.00 | 80 | 1016.4 | |
| 20260830215017 | 66 | 144 | 2.0 | 3.0 | 0.00 | 0.00 | 0.00 | 83 | 1016.4 |
| 20260830214036 | 66 | 0.0 | 0.0 | 0.00 | 0.00 | 0.00 | 84 | 1016.4 | |
| 20260830213016 | 66 | 0.0 | 0.0 | 0.00 | 0.00 | 0.00 | 84 | 1016.4 | |
| 20260830212038 | 66 | 154 | 1.0 | 2.0 | 0.00 | 0.00 | 0.00 | 84 | 1016.4 |
| 20260830211019 | 66 | 0.0 | 0.0 | 0.00 | 0.00 | 0.00 | 84 | 1016.3 | |
| 20260830210022 | 67 | 0.0 | 0.0 | 0.00 | 0.00 | 0.00 | 83 | 1016.3 | |
| 20260830205017 | 67 | 154 | 0.0 | 2.0 | 0.00 | 0.00 | 0.00 | 82 | 1016.3 |
| 20260830204015 | 66 | 0.0 | 0.0 | 0.00 | 0.00 | 0.00 | 82 | 1016.3 | |
| 20260830203016 | 66 | 0.0 | 0.0 | 0.00 | 0.00 | 0.00 | 82 | 1016.4 | |
| 20260830202016 | 66 | 0.0 | 0.0 | 0.00 | 0.00 | 0.00 | 81 | 1016.4 | |
| 20260830201016 | 66 | 0.0 | 0.0 | 0.00 | 0.00 | 0.00 | 81 | 1016.4 | |
| 20260830200018 | 67 | 190 | 1.0 | 2.0 | 0.00 | 0.00 | 0.00 | 80 | 1016.5 |
| 20260830195138 | 67 | 0.0 | 0.0 | 0.00 | 0.00 | 0.00 | 79 | 1016.5 | |
| 20260830194017 | 68 | 0.0 | 0.0 | 0.00 | 0.00 | 0.00 | 78 | 1016.5 | |
| 20260830193037 | 69 | 0.0 | 0.0 | 0.00 | 0.00 | 0.00 | 77 | 1016.5 | |
| 20260830192015 | 69 | 214 | 0.0 | 2.0 | 0.00 | 0.00 | 0.00 | 76 | 1016.5 |
| 20260830191016 | 70 | 229 | 1.0 | 2.0 | 0.00 | 0.00 | 0.00 | 75 | 1016.4 |
| 20260830190016 | 70 | 232 | 0.0 | 1.0 | 0.00 | 0.00 | 0.00 | 75 | 1016.4 |
| 20260830185017 | 70 | 125 | 1.0 | 3.0 | 0.00 | 0.00 | 0.00 | 73 | 1016.3 |
| 20260830184017 | 71 | 112 | 0.0 | 1.0 | 0.00 | 0.00 | 0.00 | 73 | 1016.2 |
| 20260830183040 | 72 | 106 | 2.0 | 4.0 | 0.00 | 0.00 | 0.00 | 70 | 1016.1 |
| 20260830182037 | 72 | 38 | 1.0 | 2.0 | 0.00 | 0.00 | 0.00 | 69 | 1016.1 |
| 20260830181016 | 74 | 0.0 | 0.0 | 0.00 | 0.00 | 0.00 | 67 | 1016.1 | |
| 20260830180017 | 75 | 0.0 | 0.0 | 0.00 | 0.00 | 0.00 | 66 | 1016.1 | |
| 20260830175016 | 75 | 24 | 0.0 | 2.0 | 0.00 | 0.00 | 0.00 | 65 | 1016.0 |
| 20260830174017 | 76 | 24 | 0.0 | 2.0 | 0.00 | 0.00 | 0.00 | 63 | 1016.0 |
| 20260830173016 | 76 | 18 | 1.0 | 3.0 | 0.00 | 0.00 | 0.00 | 61 | 1015.8 |
| 20260830172015 | 77 | 7 | 1.0 | 4.0 | 0.00 | 0.00 | 0.00 | 59 | 1015.8 |
| 20260830171016 | 77 | 13 | 3.0 | 5.0 | 0.00 | 0.00 | 0.00 | 58 | 1015.8 |
| 20260830170018 | 77 | 350 | 3.0 | 5.0 | 0.00 | 0.00 | 0.00 | 58 | 1015.7 |
| 20260830165019 | 77 | 6 | 3.0 | 5.0 | 0.00 | 0.00 | 0.00 | 57 | 1015.6 |
| 20260830164016 | 77 | 309 | 2.0 | 4.0 | 0.00 | 0.00 | 0.00 | 58 | 1015.7 |
| 20260830163038 | 78 | 337 | 4.0 | 7.0 | 0.00 | 0.00 | 0.00 | 56 | 1015.7 |
| 20260830162016 | 78 | 331 | 2.0 | 4.0 | 0.00 | 0.00 | 0.00 | 58 | 1015.7 |
| 20260830161017 | 77 | 4 | 3.0 | 5.0 | 0.00 | 0.00 | 0.00 | 57 | 1015.7 |
| 20260830160015 | 78 | 18 | 2.0 | 6.0 | 0.00 | 0.00 | 0.00 | 57 | 1015.6 |
| 20260830155019 | 78 | 6 | 2.0 | 5.0 | 0.00 | 0.00 | 0.00 | 56 | 1015.6 |
| 20260830154017 | 78 | 13 | 2.0 | 7.0 | 0.00 | 0.00 | 0.00 | 56 | 1015.7 |
| 20260830153017 | 78 | 0 | 2.0 | 4.0 | 0.00 | 0.00 | 0.00 | 55 | 1015.7 |
| 20260830152023 | 79 | 44 | 2.0 | 5.0 | 0.00 | 0.00 | 0.00 | 55 | 1015.7 |
| 20260830151056 | 79 | 46 | 3.0 | 5.0 | 0.00 | 0.00 | 0.00 | 56 | 1015.6 |
| 20260830150020 | 78 | 10 | 3.0 | 7.0 | 0.00 | 0.00 | 0.00 | 57 | 1015.7 |
| 20260830145016 | 78 | 9 | 5.0 | 9.0 | 0.00 | 0.00 | 0.00 | 56 | 1015.7 |
| 20260830144016 | 79 | 24 | 4.0 | 8.0 | 0.00 | 0.00 | 0.00 | 55 | 1015.7 |
| 20260830143036 | 79 | 40 | 4.0 | 9.0 | 0.00 | 0.00 | 0.00 | 54 | 1015.8 |
| 20260830142037 | 79 | 31 | 3.0 | 7.0 | 0.00 | 0.00 | 0.00 | 54 | 1015.9 |
| 20260830141017 | 80 | 1 | 3.0 | 5.0 | 0.00 | 0.00 | 0.00 | 53 | 1015.7 |
| 20260830140016 | 79 | 332 | 4.0 | 8.0 | 0.00 | 0.00 | 0.00 | 53 | 1015.7 |
| 20260830135018 | 80 | 345 | 5.0 | 10.0 | 0.00 | 0.00 | 0.00 | 53 | 1015.8 |
| 20260830134021 | 80 | 325 | 5.0 | 9.0 | 0.00 | 0.00 | 0.00 | 52 | 1015.9 |
| 20260830133015 | 81 | 229 | 4.0 | 8.0 | 0.00 | 0.00 | 0.00 | 52 | 1015.9 |
| 20260830132016 | 81 | 237 | 5.0 | 10.0 | 0.00 | 0.00 | 0.00 | 52 | 1016.0 |
| 20260830131015 | 81 | 2 | 2.0 | 5.0 | 0.00 | 0.00 | 0.00 | 50 | 1016.0 |
| 20260830130017 | 82 | 183 | 2.0 | 5.0 | 0.00 | 0.00 | 0.00 | 50 | 1016.1 |
| 20260830125036 | 81 | 283 | 4.0 | 9.0 | 0.00 | 0.00 | 0.00 | 50 | 1016.3 |
| 20260830124015 | 82 | 247 | 3.0 | 8.0 | 0.00 | 0.00 | 0.00 | 52 | 1016.4 |
| 20260830123037 | 81 | 295 | 4.0 | 10.0 | 0.00 | 0.00 | 0.00 | 53 | 1016.4 |